Regional Weather Roundup
Issued by NWS

Home | Current Version | Previous Version | Text Only | Print | Product List | Glossary Off
Versions: 1 2 3 4 5 6 7 8 9 10 11 12 13 14 15 16 17 18 19 20 21 22 23 24 25 26 27 28 29 30 31 32 33 34 35 36 37 38 39 40 41 42 43 44 45 46 47 48 49 50

000
ASUS43 KIND 270959
RWRIN

WEATHER ROUNDUP FOR INDIANA
NATIONAL WEATHER SERVICE INDIANAPOLIS IN
600 AM EDT MON MAR 27 2017

NOTE: "FAIR" INDICATES FEW OR NO CLOUDS BELOW 12,000 FEET WITH NO
SIGNIFICANT WEATHER AND/OR OBSTRUCTIONS TO VISIBILITY.

* - STATION DOES NOT REPORT WEATHER SUCH AS PRECIPITATION OR FOG.

+ - STATION NOT QUALITY CONTROLLED BY THE NATIONAL WEATHER SERVICE.
    USE DATA WITH CAUTION...ESPECIALLY DEWPOINT AND RELATIVE
    HUMIDITY OBSERVATIONS.

INZ001>003-010>013-019-020-271100-
NORTHWEST INDIANA

CITY           SKY/WX    TMP DP  RH WIND       PRES   REMARKS
GARY /AIRPORT/ CLOUDY    52  48  87 W8        29.91S
KNOX *+        CLOUDY    48  41  76 W9        29.91S
MONTICELLO +   CLOUDY    49  47  93 SW5       29.93S

$$

LMZ046-743>745-271100-
SOUTHERN LAKE MICHIGAN

STATION/POSITION TIME  TEMP    WIND        PRES    WAVE
                       AIR SEA DIR/SP/G            HT
                 (UTC) (F)     (DEG/KT/KT) (MB)    (FT)
BURNS HARBOR     0940   50     240/  7/ 10 1013.2R
MICHIGAN CITY    0930   49     220/ 10/ 11   N/A

$$

INZ004-005-014>016-021>024-271100-
NORTH CENTRAL INDIANA

CITY           SKY/WX    TMP DP  RH WIND       PRES   REMARKS
GOSHEN         CLOUDY    50  47  89 SW8       29.90R
PERU/GRISSOM   CLOUDY    50  50 100 W10       29.92S
SOUTH BEND     CLOUDY    49  49 100 W7        29.90S FOG

$$

INZ006>009-017-018-025>027-271100-
NORTHEAST INDIANA

CITY           SKY/WX    TMP DP  RH WIND       PRES   REMARKS
ANGOLA *+      CLOUDY    50  43  76 W7        29.89R
FORT WAYNE     CLOUDY    51  48  89 W7        29.92S
KENDALLVILLE + CLOUDY    50  48  95 W10       29.91R

$$

INZ028-029-035-036-043>045-051>053-271100-
WEST CENTRAL INDIANA

CITY           SKY/WX    TMP DP  RH WIND       PRES   REMARKS
CRAWFORDSVL +  CLOUDY    49  49 100 CALM      29.93F
GREENCASTLE +  PTCLDY    46  46 100 CALM      29.93F FOG
LAFAYETTE      CLOUDY    50  49  96 W3        29.92F
TERRE HAUTE    FOG       44  42  93 S3        29.93F VSB 3/4

$$

INZ030>032-037>040-046>048-054>057-064-065-271100-
CENTRAL INDIANA

CITY           SKY/WX    TMP DP  RH WIND       PRES   REMARKS
INDIANAPOLIS   PTCLDY    48  46  93 CALM      29.93F
-EAGLE CREEK   MOCLDY    50  47  89 CALM      29.93F
KOKOMO +       CLOUDY    51  49  92 W10       29.94S
SHELBYVILLE    PTCLDY    47  44  90 S3        29.95F

$$

INZ033-034-041-042-049-050-058-059-271100-
EAST CENTRAL INDIANA

CITY           SKY/WX    TMP DP  RH WIND       PRES   REMARKS
MUNCIE         CLOUDY    54  49  83 W5        29.94R
RICHMOND +     CLOUDY    48  46  93 SW6       29.97R

$$

INZ060-061-067>069-081>083-085>088-271100-
SOUTHWEST INDIANA

CITY           SKY/WX    TMP DP  RH WIND       PRES   REMARKS
EVANSVILLE     CLOUDY    49  46  90 CALM      29.94S
HUNTINGBURG *+ CLOUDY    45  44  97 SE6       29.95S

$$

INZ062-063-066-070>080-084-089>092-271100-
SOUTH CENTRAL AND SOUTHEAST INDIANA

CITY           SKY/WX    TMP DP  RH WIND       PRES   REMARKS
BLOOMINGTON    FOG       42  41  96 CALM      29.93F VSB 1/4
MADISON *+       N/A     45  45 100 CALM      29.99S VSB 1
SEYMOUR +      FOG       45  45 100 CALM      29.96S VSB 1/2

$$





USA.gov is the U.S. government's official web portal to all federal, state and local government web resources and services.